Location: Deneb Observatory
(47.2267°N, 100.4953°W)
Time: 08:39:51
(UTC-06:00)

Iridium 66 - Visible Passes

Search period start: 14 February 2016 00:00
Search period end: 24 February 2016 00:00
Orbit: 776 x 779 km, 86.4° (Epoch: 13 February)

Date Brightness Start Highest point End Pass type
(mag) Time Alt. Az. Time Alt. Az. Time Alt. Az.
14 Feb 7.1 06:46:56 10° N 06:52:01 49° E 06:57:04 10° SSE visible
14 Feb 6.0 19:46:49 10° S 19:52:02 88° W 19:57:18 10° N visible
14 Feb 9.0 21:31:15 10° W 21:33:35 13° WNW 21:35:56 10° NW visible
15 Feb 8.1 06:13:45 10° NNE 06:18:17 29° ENE 06:22:48 10° SE visible
15 Feb 6.1 19:13:31 10° SSE 19:18:34 53° E 19:23:39 10° NNE visible
15 Feb 8.4 20:55:39 10° WSW 20:59:39 22° WNW 21:03:39 10° NNW visible
16 Feb 8.9 05:40:58 10° NNE 05:44:25 17° ENE 05:47:51 10° ESE visible
16 Feb 6.7 18:40:42 10° SE 18:45:13 31° E 18:49:45 10° NNE visible
16 Feb 7.5 20:21:03 10° SW 20:25:50 36° W 20:30:40 10° NNW visible
17 Feb 6.4 06:46:56 10° N 06:52:10 70° E 06:57:22 10° S visible
17 Feb 6.5 19:47:00 10° SSW 19:52:10 64° W 19:57:22 10° N visible
18 Feb 7.5 06:13:36 10° N 06:18:31 40° E 06:23:24 10° SSE visible
18 Feb 6.0 19:13:25 10° S 19:18:37 75° E 19:23:51 10° N visible
18 Feb 8.9 20:56:48 10° WSW 20:59:59 16° WNW 21:03:09 10° NNW visible
19 Feb 8.4 05:40:32 10° NNE 05:44:44 24° ENE 05:48:54 10° SE visible
19 Feb 6.4 18:40:18 10° SSE 18:45:11 43° E 18:50:07 10° NNE visible
19 Feb 8.2 20:21:43 10° SW 20:26:05 27° WNW 20:30:29 10° NNW visible
20 Feb 9.1 05:08:04 10° NE 05:10:49 14° ENE 05:13:32 10° E visible
20 Feb 6.0 06:47:01 10° N 06:52:17 85° W 06:57:30 10° S visible
20 Feb 7.2 19:47:21 10° SSW 19:52:19 45° W 19:57:21 10° N visible
21 Feb 6.8 06:13:33 10° N 06:18:42 56° E 06:23:49 10° SSE visible
21 Feb 6.2 19:13:30 10° S 19:18:42 79° W 19:23:58 10° N visible
21 Feb 9.3 20:58:41 10° W 21:00:22 11° WNW 21:02:03 10° NW visible
22 Feb 7.9 05:40:19 10° NNE 05:45:00 32° ENE 05:49:39 10° SE visible
22 Feb 6.1 18:40:06 10° SSE 18:45:13 60° E 18:50:21 10° N visible
22 Feb 8.7 20:22:38 10° WSW 20:26:23 20° WNW 20:30:09 10° NNW visible
23 Feb 8.7 05:07:25 10° NNE 05:11:09 19° ENE 05:14:53 10° ESE visible
23 Feb 6.1 06:47:11 10° N 06:52:21 61° W 06:57:28 10° SSW visible
23 Feb 7.9 19:47:52 10° SW 19:52:32 33° WNW 19:57:15 10° NNW visible
